Weather History for Mackinac Island, MI

Change the Weather History Date:

Friday, April 25, 2014

  Actual Average Record
Temperature  
Mean Temperature 37 °F -  
Max Temperature 41 °F 50 °F 80 °F (1990)
Min Temperature 33 °F 33 °F 26 °F (1980)
Degree Days  
Heating Degree Days 28    
Moisture  
Dew Point 30 °F    
Average Humidity 78    
Maximum Humidity 100    
Minimum Humidity 65    
Precipitation  
Precipitation 0.06 in - - ()
Sea Level Pressure  
Sea Level Pressure 29.78 in    
Wind  
Wind Speed 11 mph (East)    
Max Wind Speed 16 mph    
Max Gust Speed 28 mph    
Visibility 9 miles    
Events Snow    
Averages and records for this station are not official NWS values.
T = Trace of Precipitation, MM = Missing Value Source: NWS Daily Summary

Daily Weather History Graph

Daily Weather History Graph

Search for Another Location

Airport:

Trip Planner

Search our weather history database for the weather conditions in past years. The results will help you decide how hot, cold, wet, or windy it might be!

Date:

Astronomy

Apr. 25, 2014 Rise Set
Actual Time 6:35 AM EDT 8:38 PM EDT
Civil Twilight 6:03 AM EDT 9:10 PM EDT
Nautical Twilight 5:23 AM EDT 9:50 PM EDT
Astronomical Twilight 4:39 AM EDT 10:35 PM EDT
Moon 4:36 AM EDT (4/25) 4:48 PM EDT (4/25)
Length of Visible Light 15h 07m
Length of Day
14h 03m
Waning Crescent, 15% of the Moon is Illuminated
Apr 25
Waning Crescent
Apr 29
New
May 6
First Quarter
May 14
Full
May 21
Last Quarter

Hourly Weather History & Observations

Time (EDT) Temp. Windchill Dew Point Humidity Pressure Visibility Wind Dir Wind Speed Gust Speed Precip Events Conditions
12:16 AM 36.5 °F 29.2 °F 25.9 °F 65% 29.93 in 10.0 mi East 10.4 mph 16.1 mph N/A   Overcast
12:36 AM 36.3 °F 30.1 °F 26.6 °F 68% 29.94 in 10.0 mi East 8.1 mph 16.1 mph N/A   Overcast
12:56 AM 35.6 °F 27.5 °F 27.5 °F 72% 29.93 in 10.0 mi East 11.5 mph 17.3 mph N/A   Overcast
1:16 AM 35.4 °F 27.8 °F 27.9 °F 74% 29.92 in 10.0 mi East 10.4 mph 19.6 mph N/A   Overcast
1:36 AM 35.6 °F 27.5 °F 27.3 °F 72% 29.92 in 10.0 mi East 11.5 mph 19.6 mph N/A   Overcast
1:56 AM 35.6 °F 29.9 °F 27.3 °F 72% 29.91 in 10.0 mi East 6.9 mph 16.1 mph N/A   Overcast
2:16 AM 35.6 °F 26.2 °F 26.6 °F 70% 29.90 in 10.0 mi East 15.0 mph 20.7 mph N/A   Overcast
2:36 AM 35.2 °F 26.2 °F 27.1 °F 72% 29.88 in 10.0 mi East 13.8 mph 21.9 mph N/A   Overcast
2:56 AM 35.4 °F 25.6 °F 27.1 °F 72% 29.87 in 10.0 mi East 16.1 mph 24.2 mph N/A   Overcast
3:16 AM 35.2 °F 25.8 °F 27.3 °F 73% 29.86 in 10.0 mi ESE 15.0 mph 27.6 mph N/A   Overcast
3:36 AM 34.9 °F 27.1 °F 28.2 °F 77% 29.85 in 10.0 mi East 10.4 mph 23.0 mph N/A   Overcast
3:57 AM 34.7 °F 25.9 °F 28.4 °F 78% 29.83 in 10.0 mi East 12.7 mph 21.9 mph N/A   Overcast
4:16 AM 34.7 °F 25.5 °F 28.9 °F 79% 29.83 in 10.0 mi East 13.8 mph 24.2 mph N/A   Overcast
4:36 AM 34.5 °F 24.8 °F 29.3 °F 81% 29.82 in 10.0 mi East 15.0 mph 23.0 mph N/A   Overcast
4:57 AM 35.1 °F 25.9 °F 28.0 °F 76% 29.82 in 10.0 mi East 13.8 mph 24.2 mph N/A   Overcast
5:16 AM 35.6 °F 26.6 °F 27.9 °F 73% 29.81 in 10.0 mi East 13.8 mph 19.6 mph N/A   Overcast
5:36 AM 35.6 °F 27.1 °F 28.0 °F 74% 29.81 in 10.0 mi ESE 12.7 mph 20.7 mph N/A   Overcast
5:56 AM 35.6 °F 27.5 °F 27.7 °F 73% 29.80 in 10.0 mi East 11.5 mph 23.0 mph N/A   Overcast
6:16 AM 35.8 °F 27.3 °F 27.5 °F 72% 29.81 in 10.0 mi ESE 12.7 mph 21.9 mph N/A   Overcast
6:36 AM 35.6 °F 27.1 °F 28.0 °F 74% 29.80 in 10.0 mi ESE 12.7 mph 24.2 mph N/A   Overcast
6:56 AM 35.8 °F 27.3 °F 28.2 °F 74% 29.80 in 10.0 mi East 12.7 mph 23.0 mph N/A   Overcast
7:16 AM 35.6 °F 28.0 °F 28.4 °F 75% 29.80 in 10.0 mi ESE 10.4 mph 19.6 mph N/A   Overcast
7:35 AM 35.6 °F 26.2 °F 28.4 °F 75% 29.79 in 10.0 mi East 15.0 mph 23.0 mph N/A   Overcast
7:56 AM 35.6 °F 26.2 °F 28.6 °F 76% 29.78 in 10.0 mi East 15.0 mph 24.2 mph N/A   Overcast
8:17 AM 35.2 °F 25.4 °F 29.1 °F 78% 29.78 in 10.0 mi East 16.1 mph 23.0 mph N/A   Overcast
8:36 AM 35.2 °F 25.8 °F 28.9 °F 78% 29.77 in 10.0 mi East 15.0 mph 23.0 mph N/A   Overcast
8:56 AM 35.6 °F 26.2 °F 28.9 °F 77% 29.78 in 10.0 mi East 15.0 mph 23.0 mph N/A   Overcast
9:17 AM 35.6 °F 28.6 °F 28.9 °F 77% 29.78 in 10.0 mi ESE 9.2 mph 17.3 mph N/A   Overcast
9:36 AM 36.1 °F 29.3 °F 28.8 °F 75% 29.78 in 10.0 mi ESE 9.2 mph 20.7 mph N/A   Overcast
10:17 AM 36.0 °F 28.5 °F 28.9 °F 76% 29.76 in 10.0 mi East 10.4 mph 20.7 mph N/A   Overcast
10:36 AM 35.6 °F 27.1 °F 29.5 °F 78% 29.75 in 10.0 mi East 12.7 mph 20.7 mph N/A   Overcast
10:57 AM 35.6 °F 27.1 °F 29.3 °F 78% 29.75 in 10.0 mi East 12.7 mph 20.7 mph N/A   Overcast
11:16 AM 35.6 °F 26.6 °F 29.3 °F 78% 29.75 in 10.0 mi East 13.8 mph 21.9 mph N/A   Overcast
11:36 AM 35.6 °F 25.9 °F 29.3 °F 78% 29.75 in 10.0 mi East 16.1 mph 21.9 mph N/A   Overcast
11:57 AM 35.8 °F 26.5 °F 29.3 °F 77% 29.75 in 10.0 mi East 15.0 mph 21.9 mph N/A   Overcast
12:16 PM 36.3 °F 27.1 °F 28.8 °F 74% 29.75 in 10.0 mi ESE 15.0 mph 21.9 mph N/A   Overcast
12:36 PM 36.1 °F 26.9 °F 28.9 °F 75% 29.75 in 10.0 mi East 15.0 mph 21.9 mph N/A   Overcast
12:57 PM 36.0 °F 26.7 °F 29.1 °F 76% 29.75 in 10.0 mi East 15.0 mph 23.0 mph N/A   Overcast
1:16 PM 36.3 °F 27.1 °F 29.3 °F 76% 29.75 in 10.0 mi ESE 15.0 mph 20.7 mph N/A   Overcast
1:36 PM 36.1 °F 28.7 °F 29.3 °F 76% 29.75 in 10.0 mi East 10.4 mph 19.6 mph N/A   Overcast
1:57 PM 36.3 °F 28.4 °F 29.5 °F 76% 29.74 in 10.0 mi East 11.5 mph 18.4 mph N/A   Overcast
2:16 PM 36.5 °F 28.7 °F 29.5 °F 76% 29.74 in 10.0 mi East 11.5 mph 18.4 mph N/A   Overcast
2:36 PM 36.9 °F 29.1 °F 29.8 °F 76% 29.74 in 10.0 mi East 11.5 mph 18.4 mph N/A   Overcast
2:57 PM 37.0 °F 32.4 °F 30.0 °F 76% 29.74 in 10.0 mi East 5.8 mph 18.4 mph N/A   Overcast
3:16 PM 38.8 °F 32.6 °F 30.6 °F 72% 29.74 in 10.0 mi East 9.2 mph - N/A   Overcast
3:37 PM 40.3 °F 36.3 °F 31.8 °F 72% 29.73 in 10.0 mi ESE 5.8 mph - N/A   Overcast
3:57 PM 40.6 °F 33.8 °F 32.0 °F 71% 29.72 in 10.0 mi East 11.5 mph - N/A   Overcast
4:16 PM 40.1 °F 35.3 °F 32.0 °F 73% 29.73 in 10.0 mi East 6.9 mph - N/A   Overcast
4:37 PM 41.2 °F 35.5 °F 32.0 °F 70% 29.73 in 10.0 mi East 9.2 mph - N/A   Overcast
4:57 PM 41.0 °F 37.1 °F 31.8 °F 70% 29.73 in 10.0 mi East 5.8 mph - N/A   Overcast
5:16 PM 40.8 °F 37.8 °F 31.6 °F 70% 29.73 in 10.0 mi East 4.6 mph - N/A   Overcast
5:37 PM 39.7 °F 34.3 °F 32.0 °F 74% 29.74 in 10.0 mi East 8.1 mph - N/A   Overcast
5:57 PM 39.2 °F - 32.0 °F 75% 29.74 in 10.0 mi Calm Calm - N/A   Overcast
6:16 PM 37.6 °F 31.6 °F 31.6 °F 79% 29.75 in 10.0 mi ESE 8.1 mph - N/A   Overcast
6:37 PM 38.5 °F 35.0 °F 31.6 °F 76% 29.74 in 10.0 mi ESE 4.6 mph 16.1 mph N/A   Overcast
6:57 PM 38.1 °F 32.9 °F 31.3 °F 76% 29.73 in 10.0 mi East 6.9 mph - N/A   Overcast
7:16 PM 37.8 °F 33.3 °F 31.1 °F 77% 29.73 in 10.0 mi ESE 5.8 mph - N/A   Overcast
7:37 PM 37.2 °F 31.9 °F 31.6 °F 80% 29.73 in 10.0 mi East 6.9 mph - N/A   Overcast
7:57 PM 35.1 °F 27.4 °F 31.6 °F 87% 29.72 in 10.0 mi East 10.4 mph - N/A   Overcast
8:16 PM 34.7 °F 27.5 °F 31.1 °F 87% 29.71 in 10.0 mi East 9.2 mph - N/A   Overcast
8:37 PM 34.7 °F 28.1 °F 31.3 °F 87% 29.72 in 10.0 mi ESE 8.1 mph - N/A   Overcast
8:57 PM 34.3 °F 30.2 °F 32.0 °F 91% 29.75 in 4.0 mi SSE 4.6 mph - 0.02 in Snow Light Snow
9:16 PM 34.7 °F - 32.2 °F 91% 29.75 in 5.0 mi Calm Calm - 0.02 in Snow Light Snow
9:37 PM 34.0 °F 28.8 °F 33.3 °F 97% 29.76 in 7.0 mi ENE 5.8 mph - 0.03 in Snow Light Snow
9:56 PM 33.3 °F 25.7 °F 32.9 °F 99% 29.75 in 7.0 mi ENE 9.2 mph - 0.04 in Snow Light Snow
10:16 PM 33.3 °F 26.4 °F 33.1 °F 99% 29.75 in 10.0 mi East 8.1 mph - N/A   Overcast
10:37 PM 33.4 °F 27.3 °F 33.3 °F 99% 29.75 in 7.0 mi East 6.9 mph - N/A   Overcast
10:56 PM 33.6 °F 27.5 °F 33.6 °F 100% 29.75 in 7.0 mi East 6.9 mph - N/A   Overcast
11:16 PM 33.4 °F 27.3 °F 33.4 °F 100% 29.76 in 5.0 mi East 6.9 mph - N/A   Overcast
11:37 PM 33.4 °F 26.6 °F 33.4 °F 100% 29.76 in 2.5 mi ENE 8.1 mph - N/A   Overcast
11:56 PM 33.8 °F 27.7 °F 33.8 °F 100% 29.76 in 1.5 mi NE 6.9 mph - N/A   Overcast